Regional Weather Roundup
Issued by NWS Cleveland, OH

Home | Current Version | Previous Version | Graphics & Text | Print | Product List | Glossary On
Versions: 1 2 3 4 5 6 7 8 9 10 11 12 13 14 15 16 17 18 19 20 21 22 23 24 25 26 27 28 29 30 31 32 33 34 35 36 37 38 39 40 41 42 43 44 45 46 47 48 49 50
000
ASUS41 KCLE 221300
RWRCLE
OHIO REGIONAL WEATHER ROUNDUP
NATIONAL WEATHER SERVICE WILMINGTON, OH
800 AM EST SAT NOV 22 2014

NOTE: "FAIR" INDICATES FEW OR NO CLOUDS BELOW 12,000 FEET WITH NO
SIGNIFICANT WEATHER AND/OR OBSTRUCTIONS TO VISIBILITY.

OHZ001>008-015>018-024>027-034-035-043-044-221400-
   NORTHWEST OHIO

CITY           SKY/WX    TMP DP  RH WIND       PRES   REMARKS
DEFIANCE       CLOUDY    34  31  88 S6        30.15F FOG     WCI  29
FINDLAY        LGT RAIN  36  32  85 S15       30.17F
TOLEDO EXPRESS CLOUDY    32  31  96 S7        30.15F WCI  26
TOLEDO METCALF FRZ RAIN  33  30  88 S12       30.17F FOG     WCI  24
LIMA           CLOUDY    38  33  82 S15G23    30.17F
$$

OHZ009>014-019>023-028>033-038-089-221400-
   NORTHEAST OHIO

CITY           SKY/WX    TMP DP  RH WIND       PRES   REMARKS
CLE-HOPKINS    LGT RAIN  33  21  61 S14       30.23F WCI  23
CLE-LAKEFRONT  MIX PCPN  32  21  64 S18G24    30.19F WCI  20
CUY CO. ARPT   FRZ RAIN  36  23  60 SW16G24   30.20F FOG
LORAIN-ELYRIA  FRZ RAIN  32  25  75 SW14      30.21S WCI  22
ASHTABULA      CLOUDY    26  12  55 S12       30.24F WCI  16
AKRON-CANTON   FRZ RAIN  29  15  56 S10       30.25F WCI  20
WOOSTER        NOT AVBL
MANSFIELD      LGT RAIN  32  27  81 S15       30.22S WCI  22
YOUNGSTOWN     MOCLDY    25  11  55 SE9       30.25F WCI  15
$$

OHZ042-051>053-060>062-070>072-077>081-221400-
  SOUTHWEST OHIO

CITY           SKY/WX    TMP DP  RH WIND       PRES   REMARKS
CINC-COVINGTON CLOUDY    38  27  64 S9        30.27F
CINC-LUNKEN    CLOUDY    33  27  78 SW5       30.30F WCI  29
HAMILTON       CLOUDY    33  28  81 E3        30.28F
DAYTON         NOT AVBL
WRIGHT-PAT AFB NOT AVBL
DAYTON GENERAL CLOUDY    35  29  78 S13       30.25F WCI  26
WILMINGTON     LGT RAIN  34  27  75 S12       30.27F WCI  25
$$

OHZ036-037-039>041-045>050-054>059-063>069-073>076-082>088-221400-
  CENTRAL AND SOUTHEAST OHIO

CITY           SKY/WX    TMP DP  RH WIND       PRES   REMARKS
COLUMBUS       FRZ RAIN  30  25  81 SE5       30.29F WCI  25
OSU AIRPORT    CLOUDY    29  24  82 S8        30.27F WCI  21
BOLTON FIELD   LGT RAIN  30  27  86 S8        30.28F WCI  23
RICKENBACK AFB NOT AVBL
NEWARK         MIX PCPN  30  23  75 S8        30.29F WCI  22
MARION         FRZ RAIN  33  29  85 S17       30.23F FOG     WCI  22
LANCASTER      FRZ RAIN  33  27  78 SE6       30.31S WCI  28
ZANESVILLE     CLOUDY    27  17  66 S9        30.33S WCI  18
NEW PHILLY     CLOUDY    26  15  63 SE8       30.31F WCI  18
$$



USA.gov is the U.S. government's official web portal to all federal, state and local government web resources and services.